Starlink 1457

operational
NORAD ID: 45674 Int'l Des: 2020-035 Owner: SPXS Country: US Constellation: starlink
LEOCIRCULARSTARLINK_TYPE

关于 Starlink 1457

正在加载描述...

实时位置

正在加载3D地球...

即将过境

高度历史

Altitude vs Time

uPlot chart will show altitude changes over time

两行轨道根数

1 45674U 20035T 26037.00002315 .00207834 00000-0 17325-2 0 9999
2 45674 53.0489 180.0922 0005187 317.9407 116.5061 15.68917409 5949
Epoch: Feb 6, 2026 • Age: 8 hours

当前状态

高度 370.8 km
速度 7.69 km/s
星下点 -28.28°S, 121.95°E
发射日期 Jun 4, 2020
运行时间 5.6 years
类型 internet

技术详情

分类 Payload
质量 260.00 kg
干质量 248.00 kg
总质量 260.00 kg
长度 0.20 m
直径 2.80 m
跨度 9.00 m
形状 Box + pan
制造商 SPXS
平台类型 Starlink
阶段状态 In Orbit
所有者/国家 SPXS/US

大型星座

Loading constellations...